This is the latest recevied weather packets stored in our database for station/object EA3BNF-1. If no packets are shown the sender has not sent any weather packets the latest 10 day(s).
| Time | Temp. | Humidity | Pressure | Rain* | Wind** | Luminosity | Snow |
|---|---|---|---|---|---|---|---|
| 1778025561 | 16.11° C | 58% | 1011.6 hPa | - | - | - | - |
| 1778024905 | 16.11° C | 58% | 1011.7 hPa | - | - | - | - |
| 1778024250 | 16.67° C | 58% | 1011.7 hPa | - | - | - | - |
| 1778023594 | 16.67° C | 58% | 1011.6 hPa | - | - | - | - |
| 1778022939 | 16.67° C | 61% | 1011.5 hPa | - | - | - | - |
| 1778022283 | 16.67° C | 62% | 1011.3 hPa | - | - | - | - |
| 1778021627 | 16.67° C | 63% | 1011.2 hPa | - | - | - | - |
| 1778020972 | 16.67° C | 64% | 1011.2 hPa | - | - | - | - |
| 1778020316 | 16.67° C | 64% | 1011.3 hPa | - | - | - | - |
| 1778019661 | 16.67° C | 65% | 1011.5 hPa | - | - | - | - |
| 1778019004 | 17.22° C | 66% | 1011.6 hPa | - | - | - | - |
| 1778018349 | 16.67° C | 67% | 1011.7 hPa | - | - | - | - |
| 1778017694 | 16.67° C | 69% | 1012 hPa | - | - | - | - |
| 1778017038 | 16.67° C | 70% | 1012.3 hPa | - | - | - | - |
| 1778016382 | 17.22° C | 70% | 1012.3 hPa | - | - | - | - |
| 1778015727 | 17.22° C | 68% | 1012.4 hPa | - | - | - | - |
| 1778015071 | 17.22° C | 68% | 1012.2 hPa | - | - | - | - |
| 1778014416 | 17.78° C | 67% | 1012 hPa | - | - | - | - |
| 1778013759 | 17.78° C | 66% | 1011.8 hPa | - | - | - | - |
| 1778013104 | 18.33° C | 65% | 1011.6 hPa | - | - | - | - |
| 1778012449 | 18.33° C | 65% | 1011.4 hPa | - | - | - | - |
| 1778011794 | 18.89° C | 63% | 1011.4 hPa | - | - | - | - |
| 1778011137 | 18.89° C | 63% | 1011.2 hPa | - | - | - | - |
| 1778010478 | 18.89° C | 63% | 1010.9 hPa | - | - | - | - |
| 1778009822 | 18.89° C | 62% | 1010.6 hPa | - | - | - | - |
* Rain since midnight (hover to see other rain measurements)
** Current wind speed in m/s (hover to see current wind gust speed)